| time (UTC) | temp F | wind direction | speed knots | gust knots | rain 1hr in | rain 24hr in | rain mn in | humidity % | barometer mb |
| 20260506225108 | 56 | 195 | 0.0 | 5.2 | 0.00 | 0.00 | 0.00 | 75 | 1016.9 |
| 20260506224118 | 57 | 209 | 2.6 | 8.7 | 0.00 | 0.00 | 0.00 | 74 | 1016.8 |
| 20260506223118 | 57 | 180 | 2.6 | 13.0 | 0.00 | 0.00 | 0.00 | 74 | 1017.1 |
| 20260506222056 | 57 | 229 | 3.5 | 13.0 | 0.00 | 0.00 | 0.00 | 74 | 1017.1 |
| 20260506221025 | 58 | 273 | 2.6 | 9.6 | 0.00 | 0.00 | 0.00 | 74 | 1017.0 |
| 20260506214923 | 59 | 311 | 3.5 | 13.9 | 0.00 | 0.00 | 0.00 | 74 | 1017.0 |
| 20260506210514 | 60 | 262 | 4.3 | 15.6 | 0.00 | 0.00 | 0.00 | 73 | 1016.3 |
| 20260506205459 | 61 | 221 | 3.5 | 13.0 | 0.00 | 0.00 | 0.00 | 73 | 1016.5 |
| 20260506204523 | 61 | 223 | 4.3 | 13.0 | 0.00 | 0.00 | 0.00 | 71 | 1016.7 |
| 20260506203451 | 63 | 163 | 3.5 | 12.2 | 0.00 | 0.00 | 0.00 | 70 | 1016.7 |
| 20260506202454 | 64 | 236 | 3.5 | 17.4 | 0.00 | 0.00 | 0.00 | 70 | 1016.7 |
| 20260506201448 | 64 | 223 | 4.3 | 17.4 | 0.00 | 0.00 | 0.00 | 70 | 1016.8 |
| 20260506200427 | 64 | 281 | 3.5 | 14.8 | 0.00 | 0.00 | 0.00 | 69 | 1017.0 |
| 20260506195433 | 65 | 289 | 2.6 | 14.8 | 0.00 | 0.00 | 0.00 | 69 | 1017.0 |
| 20260506194434 | 65 | 257 | 2.6 | 13.0 | 0.00 | 0.00 | 0.00 | 70 | 1017.0 |
| 20260506193440 | 65 | 169 | 3.5 | 10.4 | 0.00 | 0.00 | 0.00 | 69 | 1017.2 |
| 20260506192407 | 64 | 263 | 3.5 | 11.3 | 0.00 | 0.00 | 0.00 | 71 | 1017.3 |
| 20260506191335 | 64 | 227 | 4.3 | 15.6 | 0.00 | 0.00 | 0.00 | 71 | 1017.4 |
| 20260506190353 | 64 | 289 | 3.5 | 15.6 | 0.00 | 0.00 | 0.00 | 71 | 1017.6 |
| 20260506185335 | 64 | 253 | 4.3 | 14.8 | 0.00 | 0.00 | 0.00 | 71 | 1017.7 |
| 20260506184334 | 64 | 254 | 5.2 | 14.8 | 0.00 | 0.00 | 0.00 | 71 | 1017.8 |
| 20260506182204 | 66 | 181 | 4.3 | 9.6 | 0.00 | 0.00 | 0.00 | 70 | 1018.0 |
| 20260506181150 | 66 | 255 | 3.5 | 15.6 | 0.00 | 0.00 | 0.00 | 69 | 1018.0 |
| 20260506175011 | 66 | 269 | 4.3 | 15.6 | 0.00 | 0.00 | 0.00 | 71 | 1018.3 |
| 20260506174015 | 66 | 213 | 5.2 | 15.6 | 0.00 | 0.00 | 0.00 | 71 | 1018.3 |
| 20260506173038 | 66 | 176 | 4.3 | 15.6 | 0.00 | 0.00 | 0.00 | 69 | 1018.1 |
| 20260506172018 | 66 | 211 | 4.3 | 17.4 | 0.00 | 0.00 | 0.00 | 70 | 1018.1 |
| 20260506171025 | 65 | 295 | 6.1 | 17.4 | 0.00 | 0.00 | 0.00 | 73 | 1018.0 |
| 20260506170042 | 65 | 200 | 5.2 | 17.4 | 0.00 | 0.00 | 0.00 | 71 | 1018.2 |